Observations for Trim Market St
| Time | AQI | Temp °C | Hum % | Pres Pa | CO μg/m³ | H₂S μg/m³ | NO μg/m³ | NO₂ μg/m³ | O₃ μg/m³ | SO₂ μg/m³ | PM1 μg/m³ | PM2.5 μg/m³ | PM10 μg/m³ |
|---|---|---|---|---|---|---|---|---|---|---|---|---|---|
| Thursday 30 April 2026 | |||||||||||||
| 15:05 | 1 | 28.4 | 29 | 65,864 | 0 | 0 | 0 | 7.42 | 44.99 | 0 | 2.85 | 6.08 | 7.52 |
| 15:04 | 1 | 28.4 | 29 | 65,855 | 0 | 0 | 0 | 3.73 | 41.47 | 0 | 2.85 | 8.26 | 10.14 |
| 15:01 | 1 | 28.4 | 29 | 65,843 | 0 | 0 | 0 | 4.49 | 44.65 | 0 | 2.14 | 5.53 | 6.65 |
| 15:00 | 1 | 28.3 | 29 | 65,864 | 0 | 0 | 0 | 3.01 | 32.37 | 0 | 1.43 | 4.98 | 5.47 |
| 14:59 | 1 | 28.3 | 29 | 65,862 | 0 | 0 | 0 | 6.3 | 33.52 | 0 | 2.14 | 4.97 | 6.66 |
| 14:52 | 1 | 28.2 | 29 | 65,833 | 0 | 0 | 0 | 7.12 | 47.85 | 0 | 2.14 | 5.52 | 5.79 |
| 14:46 | 1 | 28.3 | 29 | 65,831 | 0 | 0 | 0 | 0 | 23.99 | 0 | 2.14 | 5.52 | 5.79 |
| 14:45 | 1 | 28.3 | 29 | 65,855 | 0 | 0 | 0 | 0 | 9.04 | 0 | 2.14 | 6.05 | 6.66 |
| 14:44 | 1 | 28.4 | 30 | 65,855 | 0 | 0 | 0 | 6.04 | 40.21 | 0 | 2.14 | 6.04 | 6.66 |
| 14:43 | 1 | 28.4 | 29 | 65,853 | 0 | 0 | 0 | 7.37 | 44.19 | 0 | 2.14 | 6.6 | 7.52 |
| 14:42 | 1 | 28.4 | 29 | 65,849 | 0 | 0 | 0 | 4.49 | 44.65 | 0 | 1.43 | 5.53 | 6.65 |
| 14:41 | 1 | 28.5 | 29 | 65,849 | 0 | 0 | 0 | 2.78 | 33.04 | 0 | 2.14 | 6.07 | 6.68 |
| 14:40 | 1 | 28.6 | 29 | 65,849 | 0 | 0 | 0 | 3.85 | 30.43 | 0 | 2.14 | 6.07 | 6.68 |
| 14:39 | 1 | 28.7 | 29 | 65,851 | 0 | 0 | 0 | 0.01 | 21.37 | 0 | 2.85 | 6.61 | 9.26 |
| 14:38 | 1 | 28.7 | 29 | 65,872 | 0 | 0 | 0 | 2.4 | 41.61 | 0 | 1.43 | 5.52 | 6.07 |
| 14:35 | 1 | 28.7 | 30 | 65,872 | 0 | 0 | 0 | 1.89 | 23.27 | 0 | 2.85 | 7.1 | 8.39 |
| 14:29 | 1 | 28.5 | 30 | 65,860 | 0 | 0 | 0 | 5.67 | 39.52 | 0 | 2.14 | 7.12 | 9.25 |
| 14:28 | 1 | 28.4 | 30 | 65,825 | 0 | 0 | 0 | 3.31 | 41.85 | 0 | 2.14 | 6.58 | 6.66 |
| 14:27 | 1 | 28.4 | 30 | 65,841 | 0 | 0 | 0 | 4.55 | 39.43 | 0 | 2.14 | 6.59 | 6.66 |
| 14:24 | 1 | 28.5 | 29 | 65,833 | 0 | 0 | 0 | 1.65 | 41.55 | 0 | 1.43 | 4.98 | 6.66 |